If you wish to contribute or participate in the discussions about articles you are invited to join SKYbrary as a registered user

 Actions

Hobart International Airport

From SKYbrary Wiki

YMHB
Airport
ICAO: YMHB – IATA: HBA
Summary
Name Hobart International Airport
Region Asia and Pacific
Territory Australia AU.gif
Location Cambridge, Tasmania
Serving Hobart
Elevation 3.962 m
13 ft
13 ft3.962 m
Coordinates 42° 50' 13.47" S, 147° 30' 19.55" E
Runways
Designator Length Width Surface ROPS
12/30 2251 m7,385.171 ft
45 m147.638 ft
ASP yes/yes


METAR
Observation YMHB 050530Z 17012KT 9999 -SHRA FEW010 BKN014 BKN048 10/07 Q1024
Station Hobart Airport
Date/Time 05 June 2020 05:30:00
Wind direction 170°
Wind speed 12 kts
Lowest cloud amount few clouds
Temperature 10°C
Dew point 7°C
Humidity 81%
QNH 1024 hPa
Weather condition light showers rain

Hobart International Airport is an airport located in Cambridge, 17 kilometres east of Hobart, Tasmania.

Climatology

Mild temperate oceanic climate (Köppen climate classification Cfb).

Maps

Terrain

Loading map...

Airport Layout

Loading map...


Accidents & Serious Incidents at or in vicinity of YMHB

  • B738, Hobart Australia, 2010 (On 24 November 2010, a Boeing 737-800 being operated by Virgin Blue Airlines on a scheduled passenger flight from Melbourne, Victoria to Hobart, Tasmania marginally overran the destination runway after aquaplaning during the daylight landing roll in normal ground visibility.)